Flag for Netherlands Weather past 2 weeks in Leerdam, Netherlands

Now
54 °F

Low clouds.


Feels Like: 54 °F
Forecast: 46 / 59 °F
Wind: 3 mph from Southwest

Location: De Bilt

Current Time: Oct 25, 2014 at 6:02:18 AM

Latest Report: Oct 25, 2014 at 5:00 AM


Visibility: 2 mi

Pressure: 29.98 "Hg

Humidity: 99%

Dew point: 54 °F

Location of LeerdamLocation

Historic Weather in Leerdam — Graph

°F

Leerdam temperature yesterday

Maximum temperature yesterday: 55 °F (at 12:00 AM)
Minimum temperature yesterday: 52 °F (at 10:00 AM)
Average temperature yesterday: 53 °F

Past Weeks' High & Low Weather Summary

 TemperatureHumidityPressure
High73 °F (Oct 18, 5:00 PM)100% (Oct 11, 2:00 AM)30.19 "Hg (Oct 11, 2:00 AM)
Low44 °F (Oct 12, 8:00 AM)63% (Oct 15, 3:00 PM)29.44 "Hg (Oct 21, 2:00 PM)
Average56 °F88%29.88 "Hg
* Reported Oct 10 4:00 AM — Oct 25 4:00 AM, Leerdam, Weather by CustomWeather, © 2014

Note: Actual official high and low records may vary slightly from our data, if they occured in-between our weather recording intervals... More about our weather records

Advertising

Leerdam weather history for previous 24 hours

 ConditionsComfort  
Time TempWeatherWind HumidityBarometerVisibility
4:00 AM
Oct 25
54 °FDrizzle. Low clouds.5 mph100%29.97 "Hg2 mi
3:00 AM53 °FFog.3 mph100%29.98 "Hg2 mi
2:00 AM53 °FFog.5 mph99%29.99 "Hg2 mi
1:00 AM52 °FLow clouds.5 mph98%29.99 "Hg4 mi
12:00 AM52 °FRain. Low clouds.3 mph99%30.00 "Hg3 mi
11:00 PM
Oct 24
53 °FRain. Low clouds.6 mph98%29.99 "Hg3 mi
10:00 PM53 °FRain showers. Low clouds.5 mph97%30.01 "Hg4 mi
9:00 PM53 °FLow clouds.6 mph99%30.00 "Hg2 mi
8:00 PM53 °FRain. Low clouds.5 mph99%30.01 "Hg3 mi
7:00 PM53 °FDrizzle. Low clouds.5 mph97%30.01 "Hg2 mi
6:00 PM54 °FOvercast.5 mph91%30.01 "Hg9 mi
5:00 PM54 °FDrizzle. Low clouds.3 mph97%30.02 "Hg4 mi
4:00 PM53 °FRain. Low clouds.5 mph96%30.03 "Hg2 mi
3:00 PM54 °FLow clouds.5 mph92%30.03 "Hg7 mi
2:00 PM54 °FLow clouds.6 mph93%30.05 "Hg7 mi
1:00 PM53 °FLow clouds.5 mph96%30.07 "Hg3 mi
12:00 PM52 °FLight rain. Low clouds.5 mph95%30.08 "Hg5 mi
11:00 AM52 °FRain showers. Overcast.5 mph90%30.09 "Hg6 mi
10:00 AM52 °FRain showers. Overcast.5 mph86%30.09 "HgN/A
9:00 AM52 °FDrizzle. Overcast.5 mph83%30.09 "Hg9 mi
8:00 AM52 °FOvercast.5 mph83%30.08 "Hg9 mi
7:00 AM53 °FOvercast.5 mph81%30.09 "Hg10 mi
6:00 AM53 °FOvercast.5 mph80%30.09 "Hg11 mi
Weather by CustomWeather, © 2014

See weather overviewHow to use our weather pages